• In Kazakhstan
  • List of Countries
  • For 7 days
  • Water Temperature
  • Satellite Maps
  • Weather Map
  • News
  • Weather Widgets
  • user-avatar
    Login

    Hourly Weather Annapolis

    Today, 22 November, Wednesday

    Time Temperature Precipitation Wind Pressure Humidity
    00:00 +12°C° 0.2 mm 4 mps 761 mmHg 82%
    01:00 +12°C° 0 mm 3 mps 761 mmHg 82%
    02:00 +11°C° 0.4 mm 3 mps 760 mmHg 84%
    03:00 +11°C° 0.4 mm 3 mps 760 mmHg 87%
    04:00 +11°C° 0.4 mm 3 mps 759 mmHg 90%
    05:00 +11°C° 0.3 mm 3 mps 759 mmHg 90%
    06:00 +11°C° 0.3 mm 3 mps 760 mmHg 90%
    07:00 +12°C° 0 mm 2 mps 759 mmHg 86%
    08:00 +12°C° 0.1 mm 4 mps 760 mmHg 78%
    09:00 +12°C° 0.1 mm 5 mps 760 mmHg 70%
    10:00 +11°C° 0.1 mm 6 mps 760 mmHg 62%
    11:00 +11°C° 0 mm 6 mps 760 mmHg 58%
    12:00 +11°C° 0 mm 7 mps 761 mmHg 54%
    13:00 +11°C° 0 mm 7 mps 761 mmHg 50%
    14:00 +10°C° 0 mm 7 mps 761 mmHg 51%
    15:00 +9°C° 0 mm 7 mps 762 mmHg 51%
    16:00 +8°C° 0 mm 6 mps 762 mmHg 51%
    17:00 +7°C° 0 mm 6 mps 763 mmHg 52%
    18:00 +5°C° 0 mm 6 mps 764 mmHg 53%
    19:00 +5°C° 0 mm 5 mps 764 mmHg 53%
    20:00 +3°C° 0 mm 5 mps 765 mmHg 54%
    21:00 +3°C° 0 mm 5 mps 765 mmHg 54%
    22:00 +2°C° 0 mm 5 mps 766 mmHg 55%
    23:00 +1°C° 0 mm 5 mps 766 mmHg 55%

    Tomorrow, 23 November, Thursday

    Time Temperature Precipitation Wind Pressure Humidity
    00:00 +1°C° 0 mm 4 mps 766 mmHg 56%
    01:00 0°C° 0 mm 4 mps 766 mmHg 57%
    02:00 0°C° 0 mm 4 mps 766 mmHg 57%
    03:00 0°C° 0 mm 3 mps 766 mmHg 58%
    04:00 0°C° 0 mm 3 mps 765 mmHg 59%
    05:00 0°C° 0 mm 3 mps 766 mmHg 60%
    06:00 0°C° 0 mm 3 mps 766 mmHg 60%
    07:00 -1°C° 0 mm 3 mps 766 mmHg 61%
    08:00 +1°C° 0 mm 3 mps 766 mmHg 56%
    09:00 +2°C° 0 mm 3 mps 766 mmHg 52%
    10:00 +3°C° 0 mm 3 mps 766 mmHg 47%
    11:00 +4°C° 0 mm 3 mps 765 mmHg 44%
    12:00 +5°C° 0 mm 3 mps 764 mmHg 41%
    13:00 +7°C° 0 mm 2 mps 763 mmHg 38%
    14:00 +7°C° 0 mm 2 mps 763 mmHg 39%
    15:00 +7°C° 0 mm 2 mps 763 mmHg 40%
    16:00 +8°C° 0 mm 1 mps 763 mmHg 41%
    17:00 +7°C° 0 mm 1 mps 763 mmHg 43%
    18:00 +7°C° 0 mm 1 mps 763 mmHg 46%
    19:00 +6°C° 0 mm 1 mps 763 mmHg 48%
    20:00 +6°C° 0 mm 1 mps 763 mmHg 50%
    21:00 +5°C° 0 mm 2 mps 763 mmHg 53%
    22:00 +4°C° 0 mm 2 mps 763 mmHg 55%
    23:00 +4°C° 0 mm 2 mps 763 mmHg 57%

    Day after tomorrow, 24 November, Friday

    Time Temperature Precipitation Wind Pressure Humidity
    00:00 +4°C° 0 mm 2 mps 764 mmHg 60%
    01:00 +4°C° 0 mm 2 mps 764 mmHg 62%
    02:00 +5°C° 0 mm 1 mps 764 mmHg 64%
    03:00 +4°C° 0 mm 1 mps 764 mmHg 65%
    04:00 +4°C° 0 mm 1 mps 763 mmHg 66%
    05:00 +4°C° 0 mm 1 mps 764 mmHg 67%
    06:00 +4°C° 0 mm 1 mps 764 mmHg 68%
    07:00 +4°C° 0 mm 1 mps 764 mmHg 69%
    08:00 +5°C° 0 mm 1 mps 764 mmHg 64%
    09:00 +7°C° 0 mm 1 mps 764 mmHg 58%
    10:00 +9°C° 0 mm 1 mps 764 mmHg 52%
    11:00 +9°C° 0 mm 2 mps 763 mmHg 49%
    12:00 +10°C° 0 mm 2 mps 763 mmHg 47%
    13:00 +11°C° 0 mm 3 mps 762 mmHg 44%
    14:00 +11°C° 0 mm 3 mps 762 mmHg 46%
    15:00 +10°C° 0 mm 3 mps 761 mmHg 49%
    16:00 +10°C° 0 mm 3 mps 761 mmHg 51%
    17:00 +10°C° 0 mm 3 mps 761 mmHg 54%
    18:00 +9°C° 0 mm 3 mps 761 mmHg 58%
    19:00 +8°C° 0 mm 3 mps 761 mmHg 62%
    20:00 +7°C° 0 mm 4 mps 761 mmHg 62%
    21:00 +7°C° 0 mm 4 mps 761 mmHg 63%
    22:00 +7°C° 0 mm 4 mps 760 mmHg 63%
    23:00 +7°C° 0 mm 4 mps 760 mmHg 64%

    25 November, Saturday

    Time Temperature Precipitation Wind Pressure Humidity
    00:00 +6°C° 0 mm 4 mps 759 mmHg 64%
    01:00 +6°C° 0 mm 4 mps 759 mmHg 65%
    02:00 +6°C° 0 mm 4 mps 759 mmHg 66%
    03:00 +7°C° 0 mm 3 mps 758 mmHg 68%
    04:00 +7°C° 0 mm 3 mps 758 mmHg 70%
    05:00 +5°C° 0 mm 3 mps 757 mmHg 73%
    06:00 +5°C° 0 mm 3 mps 757 mmHg 76%
    07:00 +5°C° 0 mm 3 mps 757 mmHg 78%
    08:00 +7°C° 0 mm 3 mps 757 mmHg 74%
    09:00 +8°C° 0 mm 3 mps 757 mmHg 70%
    10:00 +10°C° 0 mm 3 mps 757 mmHg 66%
    11:00 +11°C° 0 mm 3 mps 756 mmHg 63%
    12:00 +13°C° 0 mm 2 mps 756 mmHg 59%
    13:00 +14°C° 0 mm 2 mps 755 mmHg 56%
    14:00 +14°C° 0 mm 2 mps 755 mmHg 58%
    15:00 +14°C° 0 mm 2 mps 755 mmHg 61%
    16:00 +14°C° 0 mm 1 mps 755 mmHg 63%
    17:00 +14°C° 0 mm 1 mps 755 mmHg 66%
    18:00 +13°C° 0 mm 2 mps 756 mmHg 68%
    19:00 +12°C° 0 mm 2 mps 756 mmHg 70%
    20:00 +12°C° 0 mm 2 mps 756 mmHg 71%
    21:00 +11°C° 0 mm 3 mps 757 mmHg 73%
    22:00 +10°C° 0 mm 4 mps 757 mmHg 74%
    23:00 +10°C° 0 mm 4 mps 757 mmHg 72%

    26 November, Sunday

    Time Temperature Precipitation Wind Pressure Humidity
    00:00 +8°C° 0 mm 4 mps 757 mmHg 71%
    01:00 +7°C° 0 mm 5 mps 757 mmHg 70%
    02:00 +6°C° 0 mm 5 mps 757 mmHg 68%
    03:00 +6°C° 0 mm 5 mps 758 mmHg 66%
    04:00 +6°C° 0 mm 5 mps 758 mmHg 65%
    05:00 +5°C° 0 mm 5 mps 759 mmHg 65%
    06:00 +5°C° 0 mm 5 mps 759 mmHg 66%
    07:00 +5°C° 0 mm 5 mps 760 mmHg 66%
    08:00 +4°C° 0 mm 6 mps 760 mmHg 62%
    09:00 +5°C° 0 mm 7 mps 761 mmHg 57%
    10:00 +5°C° 0 mm 7 mps 761 mmHg 52%
    11:00 +6°C° 0 mm 7 mps 761 mmHg 50%
    12:00 +6°C° 0 mm 7 mps 761 mmHg 47%
    13:00 +6°C° 0 mm 7 mps 761 mmHg 44%
    14:00 +6°C° 0 mm 7 mps 761 mmHg 45%
    15:00 +5°C° 0 mm 7 mps 761 mmHg 46%
    16:00 +5°C° 0 mm 6 mps 762 mmHg 46%
    17:00 +4°C° 0 mm 6 mps 763 mmHg 49%
    18:00 +3°C° 0 mm 5 mps 764 mmHg 52%
    19:00 +3°C° 0 mm 5 mps 765 mmHg 54%
    20:00 +2°C° 0 mm 5 mps 765 mmHg 56%
    21:00 +2°C° 0 mm 5 mps 765 mmHg 57%
    22:00 +1°C° 0 mm 5 mps 766 mmHg 59%
    23:00 +1°C° 0 mm 4 mps 766 mmHg 60%

    27 November, Monday

    Time Temperature Precipitation Wind Pressure Humidity
    00:00 0°C° 0 mm 4 mps 766 mmHg 62%
    01:00 0°C° 0 mm 4 mps 766 mmHg 63%
    02:00 +1°C° 0 mm 3 mps 766 mmHg 65%
    03:00 0°C° 0 mm 3 mps 767 mmHg 67%
    04:00 +1°C° 0 mm 2 mps 767 mmHg 68%
    05:00 +1°C° 0 mm 2 mps 767 mmHg 69%
    06:00 +1°C° 0 mm 2 mps 768 mmHg 70%
    07:00 +1°C° 0 mm 2 mps 768 mmHg 71%
    08:00 +2°C° 0 mm 2 mps 768 mmHg 65%
    09:00 +4°C° 0 mm 2 mps 768 mmHg 59%
    10:00 +5°C° 0 mm 2 mps 768 mmHg 53%
    11:00 +6°C° 0 mm 2 mps 768 mmHg 50%
    12:00 +8°C° 0 mm 2 mps 767 mmHg 47%
    13:00 +9°C° 0 mm 2 mps 766 mmHg 43%
    14:00 +9°C° 0 mm 2 mps 766 mmHg 46%
    15:00 +8°C° 0 mm 2 mps 766 mmHg 48%
    16:00 +8°C° 0 mm 2 mps 766 mmHg 50%
    17:00 +8°C° 0 mm 2 mps 766 mmHg 54%
    18:00 +7°C° 0 mm 2 mps 766 mmHg 58%
    19:00 +5°C° 0 mm 3 mps 766 mmHg 62%
    20:00 +5°C° 0 mm 3 mps 766 mmHg 63%
    21:00 +5°C° 0 mm 3 mps 766 mmHg 64%
    22:00 +5°C° 0 mm 3 mps 766 mmHg 66%
    23:00 +5°C° 0 mm 4 mps 766 mmHg 66%
    Show more